This is the latest recevied weather packets stored in our database for station/object F5OZP-13. If no packets are shown the sender has not sent any weather packets the latest 10 day(s).
| Time | Temp. | Humidity | Pressure | Rain* | Wind** | Luminosity | Snow |
|---|---|---|---|---|---|---|---|
| 1777717006 | 20.56° C | 99% | 1017.8 hPa | - | - | 0 W/m² | - |
| 1777716698 | 20.56° C | 99% | 1017.7 hPa | - | - | 0 W/m² | - |
| 1777716395 | 20° C | 99% | 1017.7 hPa | - | - | 0 W/m² | - |
| 1777716087 | 19.44° C | 99% | 1017.9 hPa | - | - | 0 W/m² | - |
| 1777715796 | 18.89° C | 99% | 1018 hPa | - | - | 0 W/m² | - |
| 1777715475 | 18.33° C | 99% | 1018 hPa | - | - | 0 W/m² | - |
| 1777715167 | 18.33° C | 99% | 1018 hPa | - | - | 0 W/m² | - |
| 1777714859 | 17.78° C | 99% | 1017.9 hPa | - | - | 0 W/m² | - |
| 1777714551 | 17.78° C | 99% | 1018 hPa | - | - | 0 W/m² | - |
| 1777714243 | 17.78° C | 99% | 1018 hPa | - | - | 0 W/m² | - |
| 1777713943 | 17.78° C | 99% | 1018.1 hPa | - | - | 0 W/m² | - |
| 1777713626 | 17.78° C | 99% | 1018.2 hPa | - | - | 0 W/m² | - |
| 1777713318 | 18.33° C | 99% | 1017.8 hPa | - | - | 0 W/m² | - |
| 1777713010 | 18.33° C | 99% | 1017.7 hPa | - | - | 0 W/m² | - |
| 1777712701 | 18.33° C | 99% | 1017.7 hPa | - | - | 0 W/m² | - |
| 1777712393 | 18.33° C | 99% | 1017.8 hPa | - | - | 0 W/m² | - |
| 1777712093 | 17.78° C | 99% | 1017.9 hPa | - | - | 0 W/m² | - |
| 1777711777 | 17.22° C | 99% | 1017.9 hPa | - | - | 0 W/m² | - |
| 1777711469 | 16.67° C | 99% | 1018 hPa | - | - | 0 W/m² | - |
| 1777711161 | 16.67° C | 99% | 1018 hPa | - | - | 0 W/m² | - |
| 1777710852 | 16.67° C | 99% | 1018 hPa | - | - | 0 W/m² | - |
| 1777710544 | 16.11° C | 99% | 1018 hPa | - | - | 0 W/m² | - |
| 1777710244 | 15.56° C | 99% | 1018 hPa | - | - | 0 W/m² | - |
| 1777709928 | 15.56° C | 99% | 1018 hPa | - | - | 0 W/m² | - |
| 1777709620 | 15.56° C | 99% | 1018 hPa | - | - | 0 W/m² | - |
* Rain since midnight (hover to see other rain measurements)
** Current wind speed in m/s (hover to see current wind gust speed)